Flag for Germany Weather past 2 weeks in Bretten, Baden-Württemberg, Germany

Now
43 °F

Clear.


Feels Like: 40 °F
Forecast: 33 / 47 °F
Wind: 5 mph from Northwest

Location: Baden Wurttemberg - Neuostheim

Current Time: Mar 5, 2015 at 7:55:04 PM

Latest Report: Mar 5, 2015 at 7:20 PM


Visibility: 10 mi

Pressure: 30.63 "Hg

Humidity: 57%

Dew point: 28 °F

Location of BrettenLocation

Historic Weather in Bretten — Graph

°F

Bretten temperature yesterday

Maximum temperature yesterday: 46 °F (at 3:50 PM)
Minimum temperature yesterday: 37 °F (at 6:20 AM)
Average temperature yesterday: 42 °F

Past Weeks' High & Low Weather Summary

 TemperatureHumidityPressure
High55 °F (Feb 20, 3:20 PM)100% (Feb 22, 7:50 AM)30.66 "Hg (Feb 22, 7:50 AM)
Low30 °F (Feb 19, 5:20 AM)35% (Mar 2, 3:20 PM)29.47 "Hg (Feb 23, 2:20 PM)
Average42 °F71%30.02 "Hg
* Reported Feb 18 6:20 PM — Mar 5 6:20 PM, Bretten, Weather by CustomWeather, © 2015

Note: Actual official high and low records may vary slightly from our data, if they occured in-between our weather recording intervals... More about our weather records

Advertising

Bretten weather history for previous 24 hours

 ConditionsComfort  
Time TempWeatherWind HumidityBarometerVisibility
6:20 PM
Thu, Mar 5
45 °FPassing clouds.7 mph53%30.60 "HgN/A
5:50 PM46 °FMore clouds than sun.9 mph50%30.60 "HgN/A
5:20 PM46 °FOvercast.6 mph50%30.60 "HgN/A
4:50 PM46 °FBroken clouds.7 mph50%30.60 "HgN/A
4:20 PM46 °FScattered clouds.8 mph53%30.60 "HgN/A
3:50 PM46 °FBroken clouds.12 mph50%30.60 "HgN/A
3:20 PM46 °FBroken clouds.9 mph46%30.60 "HgN/A
2:50 PM46 °FBroken clouds.12 mph50%30.60 "HgN/A
2:20 PM46 °FScattered clouds.9 mph50%30.60 "HgN/A
1:50 PM46 °FPartly sunny.9 mph50%30.60 "HgN/A
1:20 PM45 °FPartly sunny.9 mph53%30.63 "HgN/A
12:50 PM45 °FScattered clouds.8 mph53%30.63 "HgN/A
12:20 PM45 °FScattered clouds.8 mph53%30.63 "HgN/A
11:50 AM45 °FBroken clouds.10 mph57%30.63 "HgN/A
11:20 AM43 °FPartly sunny.7 mph57%30.63 "HgN/A
10:50 AM41 °FBroken clouds.10 mph61%30.63 "HgN/A
10:20 AM41 °FBroken clouds.13 mph66%30.63 "HgN/A
9:50 AM41 °FScattered clouds.10 mph66%30.63 "HgN/A
9:20 AM41 °FPassing clouds.9 mph61%30.60 "HgN/A
8:50 AM41 °FSunny.12 mph61%30.60 "Hg10 mi
8:20 AM39 °FSunny.8 mph65%30.60 "Hg10 mi
7:50 AM37 °FPassing clouds.8 mph70%30.60 "HgN/A
7:20 AM36 °FPassing clouds.5 mph81%30.57 "HgN/A
6:50 AM36 °FPassing clouds.5 mph81%30.57 "HgN/A
6:20 AM37 °FClear.5 mph75%30.57 "Hg10 mi
5:50 AM37 °FPassing clouds.8 mph81%30.54 "HgN/A
5:20 AM37 °FClear.7 mph81%30.54 "Hg10 mi
10:20 PM
Wed, Mar 4
37 °FPassing clouds.3 mph75%30.45 "HgN/A
9:50 PM39 °FPassing clouds.3 mph75%30.42 "HgN/A
9:20 PM41 °FPassing clouds.10 mph66%30.42 "HgN/A
8:50 PM41 °FClear.9 mph66%30.39 "Hg10 mi
8:20 PM43 °FClear.9 mph61%30.39 "Hg10 mi
7:50 PM43 °FClear.7 mph61%30.39 "Hg10 mi
7:20 PM43 °FClear.7 mph61%30.39 "Hg10 mi
Weather by CustomWeather, © 2015

See weather overviewHow to use our weather pages